LOT15 EPWA-EGPH

Flight info

Callsign LOT15
Flight time 2h 31m
Altitude 38000
Route LOLSI DCT DIBLO DCT INDIG DCT GOVEN DCT MAG DCT TOLGI DCT ABAMI Z717 NEREL Z28 DIBIR DCT BUDIP DCT GODOS DCT NATEB Y96 AGPED
Aircraft B738/M-SDE2E3FGHIRWXY/LB1

Departure

Time 2026-05-06 09:56
Airport Warsaw Chopin Airport (EPWA)

Arrival

Time 2026-05-06 12:27
Airport Edinburgh Airport (EGPH)
Time Latitude Longitude Altitude Speed Heading
2026-05-06 09:29 52.16816 20.97312 339 ft 0 kts 78°
2026-05-06 09:46 52.16816 20.97311 339 ft 0 kts 78°
2026-05-06 09:46 52.16813 20.97290 339 ft 2 kts 78°
2026-05-06 09:46 52.16810 20.97265 338 ft 2 kts 78°
2026-05-06 09:47 52.16807 20.97242 338 ft 2 kts 78°
2026-05-06 09:47 52.16804 20.97218 337 ft 2 kts 79°
2026-05-06 09:47 52.16802 20.97202 337 ft 0 kts 78°
2026-05-06 09:47 52.16797 20.97183 337 ft 2 kts 33°
2026-05-06 09:48 52.16782 20.97177 337 ft 2 kts 345°
2026-05-06 09:48 52.16776 20.97181 337 ft 1 kts 322°
2026-05-06 09:48 52.16771 20.97186 337 ft 0 kts 328°
2026-05-06 09:51 52.16777 20.97180 337 ft 2 kts 329°
2026-05-06 09:51 52.16800 20.97159 336 ft 5 kts 330°
2026-05-06 09:51 52.16846 20.97119 336 ft 9 kts 333°
2026-05-06 09:52 52.16916 20.97056 334 ft 13 kts 333°
2026-05-06 09:52 52.17004 20.96980 333 ft 15 kts 332°
2026-05-06 09:52 52.17103 20.96892 333 ft 16 kts 331°
2026-05-06 09:52 52.17201 20.96806 334 ft 15 kts 332°
2026-05-06 09:53 52.17293 20.96724 334 ft 14 kts 331°
2026-05-06 09:53 52.17380 20.96647 334 ft 15 kts 331°
2026-05-06 09:53 52.17462 20.96567 334 ft 12 kts 306°
2026-05-06 09:53 52.17442 20.96428 333 ft 13 kts 252°
2026-05-06 09:54 52.17487 20.96312 334 ft 14 kts 332°
2026-05-06 09:54 52.17574 20.96221 335 ft 14 kts 299°
2026-05-06 09:54 52.17559 20.96086 338 ft 11 kts 222°
2026-05-06 09:54 52.17488 20.96021 339 ft 12 kts 204°
2026-05-06 09:55 52.17406 20.95986 340 ft 11 kts 166°
2026-05-06 09:55 52.17333 20.96051 339 ft 15 kts 152°
2026-05-06 09:55 52.17030 20.96315 334 ft 88 kts 150°
2026-05-06 09:55 52.16283 20.96975 337 ft 155 kts 151°
2026-05-06 09:56 52.15245 20.97886 801 ft 175 kts 154°
2026-05-06 09:56 52.14185 20.98800 1570 ft 172 kts 154°
2026-05-06 09:56 52.13129 20.99703 1926 ft 177 kts 155°
2026-05-06 09:56 52.12000 21.00619 2182 ft 185 kts 163°
2026-05-06 09:57 52.10692 21.00612 2302 ft 199 kts 203°
2026-05-06 09:57 52.09506 20.99315 2466 ft 217 kts 219°
2026-05-06 09:57 52.08292 20.97721 2698 ft 231 kts 217°
2026-05-06 09:57 52.06941 20.96139 2967 ft 245 kts 214°
2026-05-06 09:58 52.05491 20.94516 3229 ft 258 kts 216°
2026-05-06 09:58 52.04185 20.92510 3806 ft 266 kts 235°
2026-05-06 09:58 52.03510 20.89780 4734 ft 265 kts 259°
2026-05-06 09:58 52.03413 20.86805 5551 ft 269 kts 266°
2026-05-06 09:59 52.03382 20.83751 6358 ft 271 kts 265°
2026-05-06 09:59 52.03325 20.80717 7194 ft 272 kts 264°
2026-05-06 09:59 52.03253 20.77682 7977 ft 274 kts 264°
2026-05-06 09:59 52.03176 20.74577 8780 ft 276 kts 264°
2026-05-06 10:00 52.03100 20.71479 9558 ft 277 kts 264°
2026-05-06 10:00 52.03023 20.68380 10257 ft 282 kts 264°
2026-05-06 10:00 52.02938 20.65082 10665 ft 298 kts 264°
2026-05-06 10:00 52.02849 20.61652 11087 ft 312 kts 264°
2026-05-06 10:01 52.02758 20.58109 11466 ft 327 kts 265°
2026-05-06 10:01 52.02824 20.54302 11926 ft 342 kts 275°
2026-05-06 10:01 52.03396 20.50536 12614 ft 350 kts 284°
2026-05-06 10:01 52.04230 20.46812 13274 ft 356 kts 288°
2026-05-06 10:02 52.05155 20.43059 13955 ft 360 kts 288°
2026-05-06 10:02 52.06083 20.39298 14689 ft 361 kts 288°
2026-05-06 10:02 52.06982 20.35540 15361 ft 363 kts 287°
2026-05-06 10:02 52.07879 20.31681 15999 ft 367 kts 286°
2026-05-06 10:03 52.08762 20.27795 16663 ft 369 kts 286°
2026-05-06 10:03 52.09648 20.23850 17328 ft 371 kts 286°
2026-05-06 10:03 52.10523 20.19914 17925 ft 374 kts 286°
2026-05-06 10:03 52.11401 20.15957 18564 ft 377 kts 286°
2026-05-06 10:04 52.12299 20.11900 19151 ft 381 kts 286°
2026-05-06 10:04 52.13197 20.07843 19730 ft 384 kts 286°
2026-05-06 10:04 52.14101 20.03758 20358 ft 385 kts 286°
2026-05-06 10:04 52.15003 19.99674 20915 ft 388 kts 286°
2026-05-06 10:05 52.15918 19.95513 21454 ft 391 kts 285°
2026-05-06 10:05 52.16705 19.91303 21991 ft 392 kts 281°
2026-05-06 10:05 52.17170 19.86975 22562 ft 390 kts 272°
2026-05-06 10:05 52.17236 19.82610 23109 ft 389 kts 265°
2026-05-06 10:06 52.17021 19.78162 23642 ft 390 kts 262°
2026-05-06 10:06 52.16680 19.73797 24107 ft 393 kts 260°
2026-05-06 10:06 52.16280 19.69376 24565 ft 396 kts 259°
2026-05-06 10:06 52.15861 19.64984 25026 ft 399 kts 259°
2026-05-06 10:07 52.15428 19.60477 25494 ft 401 kts 259°
2026-05-06 10:07 52.15001 19.56009 25963 ft 403 kts 259°
2026-05-06 10:07 52.14574 19.51502 26338 ft 407 kts 259°
2026-05-06 10:07 52.14146 19.46937 26748 ft 410 kts 259°
2026-05-06 10:08 52.13719 19.42357 27150 ft 413 kts 259°
2026-05-06 10:08 52.13289 19.37731 27533 ft 416 kts 259°
2026-05-06 10:08 52.12852 19.33036 27934 ft 418 kts 258°
2026-05-06 10:08 52.12416 19.28377 28361 ft 420 kts 258°
2026-05-06 10:09 52.11972 19.23651 28692 ft 423 kts 258°
2026-05-06 10:09 52.11520 19.18879 29070 ft 426 kts 258°
2026-05-06 10:09 52.11068 19.14111 29426 ft 428 kts 258°
2026-05-06 10:09 52.10607 19.09268 29804 ft 430 kts 258°
2026-05-06 10:10 52.10148 19.04446 30108 ft 433 kts 257°
2026-05-06 10:10 52.09685 18.99626 30392 ft 436 kts 257°
2026-05-06 10:10 52.09213 18.94734 30753 ft 437 kts 257°
2026-05-06 10:10 52.08740 18.89833 31263 ft 435 kts 257°
2026-05-06 10:11 52.08274 18.85020 31722 ft 433 kts 257°
2026-05-06 10:11 52.07802 18.80168 32205 ft 431 kts 257°
2026-05-06 10:11 52.07336 18.75390 32671 ft 428 kts 257°
2026-05-06 10:11 52.06868 18.70629 32977 ft 428 kts 257°
2026-05-06 10:12 52.06397 18.65857 33287 ft 429 kts 257°
2026-05-06 10:12 52.05920 18.61052 33618 ft 428 kts 257°
2026-05-06 10:12 52.05446 18.56293 33954 ft 427 kts 257°
2026-05-06 10:12 52.04973 18.51569 34229 ft 427 kts 257°
2026-05-06 10:13 52.04494 18.46818 34516 ft 426 kts 256°
2026-05-06 10:13 52.04012 18.42055 34795 ft 425 kts 256°
2026-05-06 10:14 52.02545 18.27669 35494 ft 425 kts 256°
2026-05-06 10:14 52.02062 18.22963 35744 ft 424 kts 256°
2026-05-06 10:14 52.01579 18.18272 35970 ft 423 kts 256°
2026-05-06 10:14 52.01091 18.13558 36135 ft 424 kts 256°
2026-05-06 10:15 52.00602 18.08860 36324 ft 424 kts 256°
2026-05-06 10:15 52.00143 18.04170 36491 ft 425 kts 258°
2026-05-06 10:15 51.99827 17.99307 36696 ft 428 kts 263°
2026-05-06 10:15 51.99760 17.94498 36924 ft 429 kts 266°
2026-05-06 10:16 51.99828 17.89673 37108 ft 429 kts 268°
2026-05-06 10:16 51.99972 17.84866 37228 ft 432 kts 269°
2026-05-06 10:16 52.00155 17.79980 37381 ft 431 kts 270°
2026-05-06 10:16 52.00343 17.75183 37493 ft 432 kts 270°
2026-05-06 10:17 52.00528 17.70298 37615 ft 433 kts 270°
2026-05-06 10:17 52.00702 17.65442 37723 ft 433 kts 270°
2026-05-06 10:17 52.01026 17.55701 37726 ft 433 kts 269°
2026-05-06 10:18 52.01321 17.45979 37711 ft 433 kts 269°
2026-05-06 10:18 52.01598 17.36180 37724 ft 434 kts 269°
2026-05-06 10:19 52.01861 17.26471 37718 ft 433 kts 268°
2026-05-06 10:19 52.02116 17.16732 37717 ft 434 kts 268°
2026-05-06 10:20 52.02364 17.06959 37711 ft 434 kts 268°
2026-05-06 10:20 52.02602 16.97160 37716 ft 434 kts 268°
2026-05-06 10:21 52.02833 16.87407 37715 ft 434 kts 268°
2026-05-06 10:21 52.03056 16.77629 37618 ft 434 kts 268°
2026-05-06 10:22 52.03270 16.67895 37693 ft 434 kts 268°
2026-05-06 10:22 52.03376 16.62948 37818 ft 437 kts 268°
2026-05-06 10:22 52.03477 16.58105 37717 ft 432 kts 268°
2026-05-06 10:23 52.03677 16.48440 37726 ft 430 kts 268°
2026-05-06 10:23 52.03867 16.38682 37728 ft 432 kts 268°
2026-05-06 10:24 52.04049 16.28937 37715 ft 430 kts 267°
2026-05-06 10:24 52.04221 16.19267 37710 ft 432 kts 267°
2026-05-06 10:25 52.04386 16.09486 37725 ft 431 kts 268°
2026-05-06 10:25 52.04541 15.99781 37712 ft 430 kts 268°
2026-05-06 10:26 52.04690 15.90097 37720 ft 431 kts 268°
2026-05-06 10:26 52.04832 15.80337 37726 ft 431 kts 268°
2026-05-06 10:27 52.04966 15.70645 37735 ft 430 kts 268°
2026-05-06 10:27 52.05090 15.61001 37646 ft 429 kts 268°
2026-05-06 10:28 52.05207 15.51314 37735 ft 432 kts 268°
2026-05-06 10:28 52.05315 15.41545 37733 ft 433 kts 268°
2026-05-06 10:29 52.05416 15.31819 37733 ft 432 kts 267°
2026-05-06 10:29 52.05510 15.22053 37735 ft 431 kts 267°
2026-05-06 10:30 52.05596 15.12258 37734 ft 432 kts 268°
2026-05-06 10:30 52.05673 15.02505 37735 ft 431 kts 267°
2026-05-06 10:31 52.05742 14.92837 37740 ft 433 kts 268°
2026-05-06 10:31 52.05804 14.83056 37739 ft 432 kts 268°
2026-05-06 10:32 52.05851 14.73353 37739 ft 432 kts 267°
2026-05-06 10:32 52.05788 14.63569 37740 ft 433 kts 266°
2026-05-06 10:33 52.05666 14.53830 37739 ft 433 kts 266°
2026-05-06 10:33 52.05538 14.44057 37737 ft 433 kts 266°
2026-05-06 10:34 52.05412 14.34297 37739 ft 434 kts 265°
2026-05-06 10:34 52.05282 14.24416 37740 ft 434 kts 265°
2026-05-06 10:35 52.05149 14.14652 37738 ft 434 kts 265°
2026-05-06 10:35 52.05008 14.04871 37742 ft 435 kts 266°
2026-05-06 10:36 52.04857 13.95020 37731 ft 435 kts 266°
2026-05-06 10:36 52.04699 13.85235 37737 ft 436 kts 266°
2026-05-06 10:37 52.04532 13.75375 37736 ft 435 kts 265°
2026-05-06 10:37 52.04358 13.65647 37737 ft 436 kts 266°
2026-05-06 10:38 52.04175 13.55767 37729 ft 436 kts 265°
2026-05-06 10:38 52.03984 13.45931 37740 ft 436 kts 266°
2026-05-06 10:39 52.03785 13.36102 37731 ft 437 kts 266°
2026-05-06 10:39 52.03578 13.26249 37729 ft 436 kts 265°
2026-05-06 10:40 52.03365 13.16474 37734 ft 437 kts 265°
2026-05-06 10:40 52.03255 13.11564 37855 ft 437 kts 265°
2026-05-06 10:40 52.03141 13.06584 37721 ft 436 kts 265°
2026-05-06 10:41 52.03027 13.01666 37850 ft 437 kts 265°
2026-05-06 10:41 52.02910 12.96743 37743 ft 437 kts 265°
2026-05-06 10:41 52.02671 12.86931 37741 ft 435 kts 265°
2026-05-06 10:42 52.02423 12.77138 37744 ft 436 kts 265°
2026-05-06 10:42 52.02165 12.67271 37740 ft 437 kts 265°
2026-05-06 10:43 52.02377 12.57459 37746 ft 440 kts 278°
2026-05-06 10:44 52.04862 12.43075 37750 ft 445 kts 285°
2026-05-06 10:44 52.06736 12.33479 37752 ft 444 kts 283°
2026-05-06 10:45 52.08529 12.23900 37754 ft 444 kts 283°
2026-05-06 10:45 52.10259 12.14259 37758 ft 444 kts 283°
2026-05-06 10:46 52.11934 12.04662 37762 ft 443 kts 282°
2026-05-06 10:46 52.13593 11.95015 37761 ft 444 kts 282°
2026-05-06 10:47 52.15237 11.85365 37762 ft 444 kts 282°
2026-05-06 10:47 52.16869 11.75709 37762 ft 444 kts 282°
2026-05-06 10:48 52.18502 11.65994 37768 ft 445 kts 282°
2026-05-06 10:48 52.20121 11.56311 37763 ft 444 kts 282°
2026-05-06 10:49 52.21745 11.46556 37769 ft 445 kts 282°
2026-05-06 10:49 52.23344 11.36883 37762 ft 445 kts 282°
2026-05-06 10:50 52.24944 11.27158 37752 ft 444 kts 282°
2026-05-06 10:50 52.26542 11.17388 37771 ft 445 kts 282°
2026-05-06 10:51 52.28131 11.07601 37765 ft 445 kts 282°
2026-05-06 10:51 52.29709 10.97848 37768 ft 445 kts 282°
2026-05-06 10:52 52.31278 10.88091 37769 ft 445 kts 282°
2026-05-06 10:52 52.32835 10.78347 37774 ft 446 kts 282°
2026-05-06 10:53 52.34392 10.68550 37779 ft 445 kts 282°
2026-05-06 10:53 52.35946 10.58707 37775 ft 446 kts 282°
2026-05-06 10:54 52.37479 10.48924 37788 ft 446 kts 282°
2026-05-06 10:54 52.39005 10.39136 37781 ft 446 kts 282°
2026-05-06 10:55 52.40526 10.29325 37778 ft 446 kts 281°
2026-05-06 10:55 52.42037 10.19515 37777 ft 445 kts 281°
2026-05-06 10:56 52.43542 10.09695 37785 ft 446 kts 281°
2026-05-06 10:56 52.45047 9.99810 37788 ft 445 kts 281°
2026-05-06 10:57 52.46539 9.89954 37792 ft 446 kts 281°
2026-05-06 10:57 52.48018 9.80133 37803 ft 446 kts 281°
2026-05-06 10:58 52.49497 9.70241 37799 ft 447 kts 281°
2026-05-06 10:58 52.50964 9.60369 37794 ft 447 kts 281°
2026-05-06 10:59 52.52425 9.50474 37793 ft 446 kts 281°
2026-05-06 10:59 52.53873 9.40592 37790 ft 447 kts 281°
2026-05-06 11:00 52.55319 9.30668 37799 ft 448 kts 280°
2026-05-06 11:00 52.56753 9.20765 37789 ft 447 kts 280°
2026-05-06 11:01 52.58184 9.10827 37790 ft 448 kts 280°
2026-05-06 11:01 52.59607 9.00872 37789 ft 448 kts 280°
2026-05-06 11:02 52.61022 8.90920 37794 ft 448 kts 280°
2026-05-06 11:02 52.62439 8.80887 37795 ft 448 kts 280°
2026-05-06 11:03 52.63831 8.70953 37809 ft 448 kts 280°
2026-05-06 11:03 52.65221 8.60956 37804 ft 448 kts 280°
2026-05-06 11:04 52.66599 8.50995 37807 ft 449 kts 281°
2026-05-06 11:04 52.67977 8.40961 37818 ft 449 kts 280°
2026-05-06 11:05 52.69344 8.30948 37811 ft 449 kts 279°
2026-05-06 11:05 52.70701 8.20934 37810 ft 448 kts 279°
2026-05-06 11:06 52.72051 8.10900 37814 ft 449 kts 279°
2026-05-06 11:06 52.73389 8.00886 37819 ft 448 kts 279°
2026-05-06 11:07 52.74719 7.90876 37830 ft 448 kts 279°
2026-05-06 11:07 52.76040 7.80863 37835 ft 449 kts 279°
2026-05-06 11:08 52.77354 7.70829 37835 ft 449 kts 279°
2026-05-06 11:08 52.78667 7.60727 37840 ft 449 kts 280°
2026-05-06 11:09 52.79968 7.50661 37837 ft 449 kts 280°
2026-05-06 11:09 52.81253 7.40627 37846 ft 449 kts 280°
2026-05-06 11:10 52.82536 7.30549 37850 ft 449 kts 279°
2026-05-06 11:10 52.83811 7.20454 37857 ft 449 kts 279°
2026-05-06 11:11 52.85081 7.10339 37857 ft 449 kts 279°
2026-05-06 11:11 52.86339 7.00232 37857 ft 449 kts 279°
2026-05-06 11:12 52.87582 6.90163 37862 ft 449 kts 279°
2026-05-06 11:12 52.88820 6.80080 37855 ft 448 kts 279°
2026-05-06 11:13 52.90049 6.69980 37864 ft 448 kts 279°
2026-05-06 11:13 52.91271 6.59866 37867 ft 448 kts 279°
2026-05-06 11:14 52.92480 6.49769 37865 ft 448 kts 279°
2026-05-06 11:14 52.93682 6.39664 37866 ft 447 kts 279°
2026-05-06 11:15 52.94876 6.29560 37864 ft 446 kts 279°
2026-05-06 11:15 52.96053 6.19513 37870 ft 447 kts 279°
2026-05-06 11:16 52.97231 6.09375 37864 ft 446 kts 279°
2026-05-06 11:16 52.98392 5.99307 37865 ft 446 kts 279°
2026-05-06 11:17 52.99544 5.89244 37871 ft 446 kts 279°
2026-05-06 11:17 53.00696 5.79089 37869 ft 446 kts 279°
2026-05-06 11:18 53.01835 5.68968 37885 ft 446 kts 279°
2026-05-06 11:18 53.02960 5.58885 37888 ft 446 kts 279°
2026-05-06 11:19 53.04083 5.48741 37881 ft 446 kts 279°
2026-05-06 11:19 53.05191 5.38661 37893 ft 446 kts 279°
2026-05-06 11:20 53.06290 5.28580 37899 ft 445 kts 278°
2026-05-06 11:20 53.07392 5.18402 37898 ft 445 kts 278°
2026-05-06 11:21 53.08476 5.08294 37909 ft 445 kts 278°
2026-05-06 11:21 53.09546 4.98223 37910 ft 444 kts 278°
2026-05-06 11:22 53.10609 4.88136 37914 ft 444 kts 278°
2026-05-06 11:22 53.11670 4.77987 37916 ft 444 kts 278°
2026-05-06 11:23 53.12709 4.67948 37917 ft 443 kts 278°
2026-05-06 11:23 53.13753 4.57791 37919 ft 443 kts 278°
2026-05-06 11:24 53.14778 4.47730 37927 ft 443 kts 278°
2026-05-06 11:24 53.15796 4.37637 37926 ft 442 kts 278°
2026-05-06 11:25 53.16803 4.27570 37928 ft 442 kts 277°
2026-05-06 11:25 53.17806 4.17455 37928 ft 442 kts 277°
2026-05-06 11:26 53.18791 4.07430 37936 ft 442 kts 277°
2026-05-06 11:26 53.19777 3.97296 37935 ft 442 kts 277°
2026-05-06 11:27 53.20747 3.87247 37941 ft 441 kts 277°
2026-05-06 11:27 53.21711 3.77168 37939 ft 441 kts 277°
2026-05-06 11:28 53.22666 3.67078 37945 ft 441 kts 277°
2026-05-06 11:28 53.23614 3.56979 37948 ft 441 kts 277°
2026-05-06 11:29 53.24716 3.46983 37942 ft 442 kts 283°
2026-05-06 11:29 53.27014 3.37431 37942 ft 446 kts 297°
2026-05-06 11:30 53.30143 3.28537 37937 ft 447 kts 300°
2026-05-06 11:30 53.33543 3.19886 37939 ft 446 kts 301°
2026-05-06 11:31 53.36972 3.11222 37938 ft 447 kts 301°
2026-05-06 11:31 53.40366 3.02513 37943 ft 446 kts 301°
2026-05-06 11:32 53.43713 2.93795 37935 ft 446 kts 301°
2026-05-06 11:32 53.47032 2.85060 37940 ft 445 kts 300°
2026-05-06 11:33 53.50353 2.76261 37949 ft 445 kts 300°
2026-05-06 11:33 53.53625 2.67546 37955 ft 444 kts 300°
2026-05-06 11:34 53.56920 2.58740 37950 ft 444 kts 300°
2026-05-06 11:34 53.60191 2.49962 37953 ft 445 kts 300°
2026-05-06 11:35 53.63452 2.41182 37961 ft 444 kts 300°
2026-05-06 11:35 53.65087 2.36766 37804 ft 444 kts 300°
2026-05-06 11:35 53.66706 2.32392 38088 ft 442 kts 300°
2026-05-06 11:35 53.68319 2.28020 37900 ft 443 kts 300°
2026-05-06 11:36 53.69944 2.23610 37963 ft 444 kts 300°
2026-05-06 11:36 53.73199 2.14752 37968 ft 445 kts 300°
2026-05-06 11:37 53.76446 2.05887 37975 ft 444 kts 300°
2026-05-06 11:37 53.79666 1.97067 37982 ft 444 kts 300°
2026-05-06 11:38 53.82890 1.88201 37982 ft 443 kts 300°
2026-05-06 11:38 53.86110 1.79311 37995 ft 443 kts 300°
2026-05-06 11:39 53.89329 1.70392 37992 ft 443 kts 300°
2026-05-06 11:39 53.92526 1.61508 37996 ft 442 kts 300°
2026-05-06 11:40 53.95716 1.52612 38005 ft 442 kts 300°
2026-05-06 11:40 53.98882 1.43753 38013 ft 442 kts 300°
2026-05-06 11:41 54.02061 1.34820 38019 ft 441 kts 298°
2026-05-06 11:41 54.05213 1.25930 38020 ft 441 kts 298°
2026-05-06 11:42 54.08367 1.17006 38024 ft 440 kts 298°
2026-05-06 11:42 54.11527 1.08029 38025 ft 440 kts 298°
2026-05-06 11:42 54.13096 1.03561 38162 ft 440 kts 298°
2026-05-06 11:43 54.14669 0.99076 38046 ft 440 kts 298°
2026-05-06 11:43 54.17762 0.90233 38030 ft 437 kts 298°
2026-05-06 11:44 54.22436 0.76795 38029 ft 439 kts 298°
2026-05-06 11:44 54.25539 0.67837 38030 ft 438 kts 298°
2026-05-06 11:45 54.28627 0.58891 38033 ft 438 kts 298°
2026-05-06 11:45 54.31730 0.49869 38036 ft 439 kts 298°
2026-05-06 11:46 54.34801 0.40911 38031 ft 439 kts 298°
2026-05-06 11:46 54.37887 0.31874 38032 ft 438 kts 298°
2026-05-06 11:47 54.40941 0.22899 38036 ft 438 kts 298°
2026-05-06 11:47 54.44024 0.13801 38028 ft 438 kts 298°
2026-05-06 11:48 54.47062 0.04803 38033 ft 439 kts 298°
2026-05-06 11:48 54.50104 -0.04240 38035 ft 438 kts 298°
2026-05-06 11:49 54.53165 -0.13373 38046 ft 438 kts 298°
2026-05-06 11:49 54.56198 -0.22455 38041 ft 438 kts 298°
2026-05-06 11:50 54.59200 -0.31478 38045 ft 437 kts 298°
2026-05-06 11:50 54.62217 -0.40575 38043 ft 438 kts 298°
2026-05-06 11:51 54.65217 -0.49662 38052 ft 437 kts 298°
2026-05-06 11:51 54.68212 -0.58767 38050 ft 436 kts 298°
2026-05-06 11:52 54.71210 -0.67912 38054 ft 436 kts 297°
2026-05-06 11:52 54.74172 -0.76984 38060 ft 436 kts 297°
2026-05-06 11:53 54.77152 -0.86143 38058 ft 435 kts 297°
2026-05-06 11:53 54.80109 -0.95270 38070 ft 435 kts 297°
2026-05-06 11:54 54.83058 -1.04398 38065 ft 434 kts 297°
2026-05-06 11:54 54.85984 -1.13493 38063 ft 434 kts 297°
2026-05-06 11:55 54.88919 -1.22653 38069 ft 434 kts 297°
2026-05-06 11:55 54.90388 -1.27249 37905 ft 433 kts 297°
2026-05-06 11:55 54.91815 -1.31721 37570 ft 429 kts 297°
2026-05-06 11:56 54.93257 -1.36248 37071 ft 430 kts 297°
2026-05-06 11:56 54.94701 -1.40797 36487 ft 432 kts 297°
2026-05-06 11:56 54.96161 -1.45402 35849 ft 435 kts 297°
2026-05-06 11:56 54.97606 -1.49971 35170 ft 439 kts 297°
2026-05-06 11:57 54.99093 -1.54686 34376 ft 440 kts 297°
2026-05-06 11:57 55.00512 -1.59233 33811 ft 426 kts 296°
2026-05-06 11:57 55.01878 -1.63807 33500 ft 423 kts 295°
2026-05-06 11:57 55.03195 -1.68341 32872 ft 416 kts 294°
2026-05-06 11:58 55.04465 -1.72766 32177 ft 407 kts 294°
2026-05-06 11:58 55.05722 -1.77170 31492 ft 410 kts 294°
2026-05-06 11:58 55.07008 -1.81683 30664 ft 414 kts 294°
2026-05-06 11:58 55.08286 -1.86159 29852 ft 416 kts 294°
2026-05-06 11:59 55.09574 -1.90667 29012 ft 419 kts 295°
2026-05-06 11:59 55.10877 -1.95222 28150 ft 421 kts 295°
2026-05-06 11:59 55.12186 -1.99795 27249 ft 424 kts 295°
2026-05-06 11:59 55.13506 -2.04410 26306 ft 428 kts 295°
2026-05-06 12:00 55.14840 -2.09079 25320 ft 431 kts 295°
2026-05-06 12:00 55.16173 -2.13751 24306 ft 435 kts 295°
2026-05-06 12:00 55.17519 -2.18477 23501 ft 432 kts 295°
2026-05-06 12:00 55.18828 -2.23076 23018 ft 423 kts 296°
2026-05-06 12:01 55.20131 -2.27664 22450 ft 417 kts 296°
2026-05-06 12:01 55.21417 -2.32201 21860 ft 411 kts 296°
2026-05-06 12:01 55.22671 -2.36633 21260 ft 406 kts 296°
2026-05-06 12:01 55.23911 -2.41026 20657 ft 402 kts 296°
2026-05-06 12:02 55.25134 -2.45373 20076 ft 397 kts 296°
2026-05-06 12:02 55.26338 -2.49658 19472 ft 393 kts 296°
2026-05-06 12:02 55.27554 -2.53999 18887 ft 398 kts 296°
2026-05-06 12:02 55.28789 -2.58417 18293 ft 408 kts 296°
2026-05-06 12:03 55.30027 -2.62850 17672 ft 405 kts 296°
2026-05-06 12:03 55.31244 -2.67219 17049 ft 400 kts 295°
2026-05-06 12:03 55.32466 -2.71610 16446 ft 395 kts 295°
2026-05-06 12:03 55.33664 -2.75924 15842 ft 390 kts 296°
2026-05-06 12:04 55.34826 -2.80117 15239 ft 386 kts 296°
2026-05-06 12:04 55.36000 -2.84361 14645 ft 381 kts 296°
2026-05-06 12:04 55.37139 -2.88486 14048 ft 377 kts 296°
2026-05-06 12:04 55.38286 -2.92646 13441 ft 373 kts 296°
2026-05-06 12:05 55.39402 -2.96700 12995 ft 365 kts 296°
2026-05-06 12:05 55.40486 -3.00644 12734 ft 352 kts 296°
2026-05-06 12:05 55.41527 -3.04443 12593 ft 337 kts 296°
2026-05-06 12:05 55.42521 -3.08072 12460 ft 324 kts 296°
2026-05-06 12:06 55.43473 -3.11552 12317 ft 311 kts 296°
2026-05-06 12:06 55.44396 -3.14927 12179 ft 299 kts 296°
2026-05-06 12:06 55.45287 -3.18190 12050 ft 288 kts 296°
2026-05-06 12:06 55.46136 -3.21307 11918 ft 277 kts 296°
2026-05-06 12:07 55.46952 -3.24305 11795 ft 267 kts 296°
2026-05-06 12:07 55.47738 -3.27199 11678 ft 257 kts 296°
2026-05-06 12:07 55.48492 -3.29975 11555 ft 247 kts 296°
2026-05-06 12:07 55.49225 -3.32681 11449 ft 247 kts 296°
2026-05-06 12:08 55.50054 -3.35382 11279 ft 247 kts 306°
2026-05-06 12:08 55.51220 -3.37551 10972 ft 245 kts 321°
2026-05-06 12:08 55.52578 -3.39390 10660 ft 244 kts 323°
2026-05-06 12:08 55.53926 -3.41190 10360 ft 243 kts 322°
2026-05-06 12:09 55.55225 -3.43011 10068 ft 241 kts 321°
2026-05-06 12:09 55.56533 -3.44902 9770 ft 239 kts 320°
2026-05-06 12:09 55.57805 -3.46764 9480 ft 237 kts 320°
2026-05-06 12:09 55.59064 -3.48606 9201 ft 236 kts 320°
2026-05-06 12:10 55.60319 -3.50440 8919 ft 234 kts 320°
2026-05-06 12:10 55.61570 -3.52264 8631 ft 233 kts 320°
2026-05-06 12:10 55.62816 -3.54081 8350 ft 232 kts 321°
2026-05-06 12:10 55.64064 -3.55900 8074 ft 230 kts 321°
2026-05-06 12:11 55.65256 -3.57754 7800 ft 229 kts 317°
2026-05-06 12:11 55.66398 -3.59694 7536 ft 228 kts 317°
2026-05-06 12:11 55.67581 -3.61584 7261 ft 228 kts 319°
2026-05-06 12:11 55.68791 -3.63393 6990 ft 227 kts 321°
2026-05-06 12:12 55.70020 -3.65190 6670 ft 228 kts 320°
2026-05-06 12:12 55.71236 -3.66968 6340 ft 229 kts 320°
2026-05-06 12:12 55.72462 -3.68769 6064 ft 228 kts 320°
2026-05-06 12:12 55.73672 -3.70550 5928 ft 223 kts 320°
2026-05-06 12:13 55.74879 -3.72328 5940 ft 226 kts 320°
2026-05-06 12:13 55.76087 -3.74107 5938 ft 224 kts 320°
2026-05-06 12:13 55.77286 -3.75895 5941 ft 226 kts 322°
2026-05-06 12:13 55.78679 -3.77088 5932 ft 227 kts 352°
2026-05-06 12:14 55.80233 -3.76844 5946 ft 228 kts 19°
2026-05-06 12:14 55.81615 -3.75454 5940 ft 227 kts 42°
2026-05-06 12:14 55.82632 -3.73327 5943 ft 228 kts 56°
2026-05-06 12:14 55.83475 -3.70942 5937 ft 228 kts 58°
2026-05-06 12:15 55.84287 -3.68523 5944 ft 227 kts 58°
2026-05-06 12:15 55.85229 -3.66266 5941 ft 227 kts 39°
2026-05-06 12:15 55.86631 -3.65007 5725 ft 232 kts
2026-05-06 12:15 55.88231 -3.65220 5417 ft 230 kts 340°
2026-05-06 12:16 55.89668 -3.66307 5346 ft 223 kts 334°
2026-05-06 12:16 55.91082 -3.67513 5330 ft 226 kts 334°
2026-05-06 12:16 55.92513 -3.68879 5320 ft 236 kts 322°
2026-05-06 12:16 55.93538 -3.71095 5189 ft 237 kts 292°
2026-05-06 12:17 55.93891 -3.73949 5210 ft 234 kts 275°
2026-05-06 12:17 55.94013 -3.76842 5224 ft 237 kts 273°
2026-05-06 12:17 55.94120 -3.79791 5159 ft 235 kts 273°
2026-05-06 12:17 55.94214 -3.82696 5180 ft 235 kts 269°
2026-05-06 12:18 55.93865 -3.85528 5067 ft 235 kts 240°
2026-05-06 12:18 55.92878 -3.87798 5084 ft 232 kts 225°
2026-05-06 12:18 55.91725 -3.89882 5087 ft 235 kts 224°
2026-05-06 12:18 55.90577 -3.91916 5015 ft 233 kts 224°
2026-05-06 12:19 55.89417 -3.93971 5053 ft 233 kts 224°
2026-05-06 12:19 55.88238 -3.95942 5107 ft 234 kts 214°
2026-05-06 12:19 55.86755 -3.97049 5060 ft 232 kts 186°
2026-05-06 12:19 55.85157 -3.96672 5014 ft 231 kts 157°
2026-05-06 12:20 55.83723 -3.95391 5024 ft 231 kts 150°
2026-05-06 12:20 55.82318 -3.93988 4958 ft 231 kts 150°
2026-05-06 12:20 55.80927 -3.92595 4919 ft 230 kts 150°
2026-05-06 12:20 55.79578 -3.91047 4870 ft 231 kts 135°
2026-05-06 12:21 55.78735 -3.88694 4761 ft 230 kts 104°
2026-05-06 12:21 55.78704 -3.85885 4700 ft 229 kts 76°
2026-05-06 12:21 55.79280 -3.83251 4767 ft 230 kts 63°
2026-05-06 12:21 55.80059 -3.80755 4796 ft 232 kts 60°
2026-05-06 12:22 55.80897 -3.78301 4728 ft 231 kts 59°
2026-05-06 12:22 55.81750 -3.75863 4634 ft 230 kts 59°
2026-05-06 12:22 55.82582 -3.73470 4627 ft 229 kts 59°
2026-05-06 12:22 55.83421 -3.71034 4519 ft 232 kts 59°
2026-05-06 12:23 55.84262 -3.68594 4088 ft 234 kts 59°
2026-05-06 12:23 55.85099 -3.66168 3802 ft 226 kts 59°
2026-05-06 12:23 55.85907 -3.63826 3489 ft 220 kts 59°
2026-05-06 12:23 55.86701 -3.61513 3176 ft 215 kts 59°
2026-05-06 12:24 55.87462 -3.59299 2872 ft 208 kts 59°
2026-05-06 12:24 55.88203 -3.57137 2585 ft 200 kts 59°
2026-05-06 12:24 55.88911 -3.55072 2295 ft 193 kts 59°
2026-05-06 12:24 55.89593 -3.53081 2038 ft 185 kts 59°
2026-05-06 12:25 55.90245 -3.51177 1786 ft 178 kts 59°
2026-05-06 12:25 55.90876 -3.49328 1555 ft 174 kts 59°
2026-05-06 12:25 55.91501 -3.47503 1302 ft 168 kts 59°
2026-05-06 12:25 55.92079 -3.45811 1083 ft 156 kts 60°
2026-05-06 12:26 55.92631 -3.44191 896 ft 151 kts 59°
2026-05-06 12:26 55.93180 -3.42584 663 ft 151 kts 59°
2026-05-06 12:26 55.93713 -3.41019 440 ft 148 kts 59°
2026-05-06 12:26 55.94262 -3.39444 203 ft 149 kts 59°
2026-05-06 12:27 55.94770 -3.37928 101 ft 126 kts 59°
2026-05-06 12:27 55.95084 -3.36991 98 ft 55 kts 58°
2026-05-06 12:27 55.95218 -3.36600 100 ft 15 kts 57°
2026-05-06 12:27 55.95258 -3.36465 101 ft 11 kts 88°
2026-05-06 12:28 55.95207 -3.36366 102 ft 11 kts 147°
2026-05-06 12:28 55.95139 -3.36315 101 ft 10 kts 188°
2026-05-06 12:28 55.95087 -3.36394 102 ft 9 kts 199°
2026-05-06 12:28 55.95020 -3.36399 101 ft 10 kts 211°
2026-05-06 12:29 55.94978 -3.36507 101 ft 11 kts 239°
2026-05-06 12:29 55.94936 -3.36630 101 ft 11 kts 240°
2026-05-06 12:29 55.94893 -3.36752 100 ft 12 kts 224°
2026-05-06 12:29 55.94820 -3.36778 102 ft 10 kts 178°
2026-05-06 12:30 55.94759 -3.36748 103 ft 8 kts 156°
2026-05-06 12:30 55.94718 -3.36735 103 ft 5 kts 171°
2026-05-06 12:30 55.94703 -3.36692 104 ft 4 kts 92°
2026-05-06 12:30 55.94703 -3.36644 104 ft 3 kts 88°
2026-05-06 12:31 55.94703 -3.36614 104 ft 1 kts 89°
2026-05-06 12:31 55.94703 -3.36605 104 ft 0 kts 89°